User: anonymous   Login
Location: Unspecified
(0.0000°N, 0.0000°E)
Time: 18:08:19
(UTC+00:00)
Language:

STRAND 1 - Orbit

View from above orbital plane
View from above orbital plane
View from above satellite
View from above satellite

Ground track
Ground track

The orbit data is extracted from the following two-line orbital elements,

1 39090U 13009E   18114.14256609  .00000048  00000-0  32046-4 0  9993
2 39090  98.5273 321.2162 0010407  96.9759 263.2610 14.35020866270072
Epoch (UTC): 24 April 2018 03:25:17
Eccentricity: 0.0010407
inclination: 98.5273°
perigee height: 767 km
apogee height: 782 km
right ascension of ascending node: 321.2162°
argument of perigee: 96.9759°
revolutions per day: 14.35020866
mean anomaly at epoch: 263.2610°
orbit number at epoch: 27007

The dashed part of the orbit path shows where the satellite is in the earth's shadow,  

DLR